Location: Unspecified
(0.0000°N, 0.0000°E)
Time: 00:22:08
(UTC+00:00)

deb Delta 104 - Pass Details

Date: 15 March 2026
Orbit: 1339 x 1585 km, 100.8° (Epoch: 14 April)

Event Time Altitude Azimuth Distance (km) Brightness Sun altitude
Exits shadow 20:48:06 18° 176° (S) 3,178 ? -39.8°
Drops below altitude 10° 20:50:02 10° 181° (S) 3,792 ? -40.3°
Sets 20:53:00 0° 185° (S) 4,775 ? -41.0°
